Preview of NWS' New Version of Forecast
This preview is not operational and should not be used for support decisions.
Latest weather observations around

Missoula, Missoula International Airport (KMSO)

Using English Units (Switch to International System of Units)
Date/ Time (MDT) Wind (mph) Vis. (mi) Weather Sky Cond. Temp (°F) Rel. Humidity Wind Chill (°F) Heat Index (°F) Pressure Precip. (in)
Air Dwpt 6 hour Altimeter (inHg) Sea level (inHg) 1 hr 3 hr 6 hr
Max Min
Jun 18 03:53 NW 5 10 Cloudy OVC055 55 49     80%     29.96 29.93 0    
Jun 18 02:53 WNW 6 10 Cloudy OVC070 55 50     83%     29.95 29.93      
Jun 18 01:53 N 3 10 Cloudy OVC065 57 48     72%     29.96 29.93      
Jun 18 00:53 W 5 10 Cloudy OVC065 56 50     80%     29.97 29.95      
Jun 17 23:53 NW 5 10 Cloudy OVC055 57 50     77%     29.99 29.97      
Jun 17 22:53 ESE 8 10 Cloudy OVC060 60 47     62%     30 29.99      
Jun 17 21:53 SE 8 10 Cloudy OVC060 60 46     60%     29.99 29.98      
Jun 17 20:53 SSE 10 10 Cloudy OVC060 60 47     62%     29.97 29.96      
Jun 17 19:53   10 Cloudy OVC060 63 45     52%     29.96 29.95      
Jun 17 18:53 E 8 10 Cloudy OVC050 63 44     50%     29.96 29.95      
Jun 17 17:53 E 11 10 Cloudy OVC060 64 45     50%     29.97 29.96      
Jun 17 16:53 3 10 Cloudy OVC060 62 49     62%     29.97 29.97      
Jun 17 15:53 NW 7 10 Cloudy BKN055 OVC070 61 49     64%     29.97 29.96      
Jun 17 14:53 S 7 10 Cloudy OVC055 62 49     62%     29.98 29.96      
Jun 17 13:53 5 10 Cloudy BKN050 OVC060 62 46     56%     29.99 29.98      
Jun 17 12:53 NW 5 10 Cloudy BKN050 OVC065 59 46     62%     30 29.99      
Jun 17 11:53 W 3 10 Cloudy BKN055 BKN070 OVC090 58 45     62%     30.01 29.99      
Jun 17 10:53 WNW 6 10 Cloudy SCT055 OVC090 53 49     86%     30.01 30.01      
Jun 17 09:53 W 6 10 Cloudy OVC100 50 48     93%     30.02 30.02      
Jun 17 08:53 WNW 7 10 Cloudy BKN100 OVC110 50 47     89%     30.02 30.02      
Jun 17 07:53 WNW 3 10 Cloudy OVC100 49 46     90% 48   30.03 30.03      
Jun 17 06:53 NNW 5 10 Cloudy BKN080 OVC100 47 44     90% 45   30.03 30.04      
Jun 17 05:53 Calm 10 Mostly Cloudy BKN080 46 43     89%     30.03 30.04      
Jun 17 04:53 NW 6 10 Partly Cloudy SCT080 46 43     89% 43   30.03 30.04      
Jun 17 03:53 N 6 10 Mostly Cloudy BKN080 46 43     89% 43   30.02 30.03      
Jun 17 03:14 NNW 5 10 Mostly Cloudy FEW004 SCT070 BKN090 47 44     90% 45   30.02        
Jun 17 02:53 NNW 5 10 Mostly Cloudy SCT075 BKN090 47 44     90% 45   30.02 30.03      
Jun 17 01:53 WNW 3 10 Mostly Cloudy BKN070 BKN085 48 46     93% 47   30.02 30.02      
Jun 17 00:53 Calm 10 Cloudy OVC070 50 48     93%     30.03 30.03      
Jun 16 23:53 Calm 10 Cloudy FEW065 OVC080 51 48     89%     30.03 30.03     0
Jun 16 22:53 N 3 10 Cloudy OVC080 51 48     89%     30.02 30.02      
Jun 16 21:53 W 3 10 Cloudy BKN085 OVC110 51 48     89%     30 30      
Jun 16 20:53 ESE 3 10 Cloudy OVC080 53 47     80%     30 30   0  
Jun 16 19:53 Calm 10 Cloudy BKN055 BKN075 OVC090 53 48     83%     29.99 29.98      
Jun 16 18:53 SE 5 10 Cloudy FEW009 SCT060 OVC090 52 47     83%     29.98 29.98 0    
Jun 16 18:45 ESE 3 10 Cloudy SCT009 BKN060 OVC090 52 48     86%     29.98   0    
Jun 16 18:35 Calm 10 Light Rain FEW010 OVC065 52 47     83%     29.98   0    
Jun 16 17:53 SE 7 10 Cloudy BKN055 OVC070 52 49     89%     29.97 29.97 0   0
Jun 16 17:09 SSE 9 10 Cloudy BKN031 BKN055 OVC075 51 48     89%     29.96   0    
Jun 16 16:53 S 10 9 Light Rain BKN027 BKN055 OVC075 51 47     86%     29.96 29.96 0    
Jun 16 15:53 SSE 11 10 Light Rain BKN017 OVC024 51 48     89%     29.93 29.93 0    
Jun 16 15:23 S 13 10 Light Rain FEW008 BKN023 OVC055 53 49     86%     29.92   0    
Jun 16 14:53 SW 5 8 Light Rain FEW023 BKN040 OVC060 54 50     86%     29.91 29.91 0 0  
Jun 16 14:28 WSW 6 8 Light Rain FEW008 SCT050 OVC060 54 50     86%     29.91   0    
Jun 16 13:53 NW 6 7 Light Rain SCT045 OVC055 54 50     86%     29.9 29.89 0    
Jun 16 13:03 NNW 7 4 Light Rain and Fog/Mist FEW033 BKN044 OVC055 52 49     89%     29.88   0    
Jun 16 12:53 NW 8 3 Rain and Fog/Mist FEW040 OVC050 52 49     89%     29.88 29.87 0    
Jun 16 12:51 NW 9 2.5 Light Rain and Fog/Mist SCT042 OVC050 52 48     87%     29.88   0    
Jun 16 12:02 NW 6 6 Light Rain and Fog/Mist FEW007 OVC055 52 49     89%     29.87   0    
Jun 16 11:53 WNW 7 6 Light Rain and Fog/Mist OVC055 52 50     93%     29.86 29.85 0   0
Jun 16 10:53 WNW 9 6 Light Rain and Fog/Mist OVC049 51 49     92%     29.85 29.83 0    
Jun 16 10:06 WNW 5 6 Rain and Fog/Mist SCT024 BKN036 OVC046 52 49     89%     29.83   0    
Jun 16 09:53 WNW 6 6 Light Rain and Fog/Mist FEW024 BKN037 OVC047 52 48     86%     29.83 29.81 0    
Jun 16 08:53 NW 7 6 Light Rain and Fog/Mist FEW023 OVC055 51 47     86%     29.81 29.78 0 0  
Jun 16 08:49 NNW 6 8 Light Rain FEW023 OVC055 52 48     87%     29.81   0    
Jun 16 07:53   10 Cloudy BKN060 OVC080 52 47     83%     29.8 29.77      
Jun 16 06:53 NW 11 10 Cloudy BKN070 OVC080 51 47     86%     29.8 29.77      
Jun 16 05:53 NW 13 10 Cloudy BKN060 OVC100 51 48     89%     29.81 29.78 0   0
Jun 16 04:53 NW 8 10 Cloudy BKN055 OVC070 51 48     89%     29.82 29.78 0    
Jun 16 03:53 WNW 3 10 Light Rain OVC055 52 48     86%     29.83 29.79 0    
Jun 16 02:53 NW 7 10 Light Rain OVC060 52 48     86%     29.83 29.79 0 0  
Jun 16 01:53 N 9 10 Light Rain OVC070 53 47     80%     29.81 29.77 0    
Jun 16 00:53 Calm 10 Mostly Clear FEW080 55 43     64%     29.8 29.77      
Jun 15 23:53 NNW 3 10 Cloudy OVC090 58 42     55%     29.8 29.76      
Jun 15 22:53 SSE 10 10 Mostly Cloudy BKN110 61 40     46%     29.81 29.78      
Jun 15 21:53 SE 10 10 Clear CLR 61 42     50%     29.8 29.78      
Jun 15 21:04   10 Mostly Cloudy BKN120 64 40     41%     29.78        
Jun 15 20:53   10 Mostly Cloudy BKN120 66 40     38%     29.77 29.75      
Jun 15 19:53 N 8 10 Clear CLR 67 40     37%     29.75 29.73      
Jun 15 18:53 N 9 10 Mostly Clear FEW100 70 40     33%     29.74 29.72      
Jun 15 17:53 N 10 10 Clear CLR 69 38     32%     29.75 29.74      
Jun 15 16:53 N 11 10 Clear CLR 73 39     29%   71 29.76 29.74      
Jun 15 15:53 WNW 5 10 Clear CLR 71 38     30%   69 29.78 29.76      
Jun 15 14:53 5 10 Clear CLR 70 35     28%     29.8 29.78      
Jun 15 13:53 NNE 6 10 Clear CLR 69 38     32%     29.82 29.8      
Jun 15 12:53 5 10 Clear CLR 65 38     37%     29.84 29.82      
Jun 15 11:53 Calm 10 Clear CLR 63 38     40%     29.85 29.84      
Jun 15 10:53 Calm 10 Clear CLR 58 39     49%     29.88 29.87      
Jun 15 09:53 Calm 10 Clear CLR 53 39     59%     29.9 29.9      
Jun 15 08:53 SSE 5 10 Clear CLR 49 39     69% 47   29.92 29.91      
Jun 15 07:53 W 3 10 Clear CLR 45 38     76% 44   29.93 29.93      
Jun 15 06:53 Calm 10 Clear CLR 41 36     82%     29.94 29.93      
Jun 15 05:53 Calm 10 Clear CLR 39 34     82%     29.94 29.93      
Jun 15 04:53 N 3 10 Clear CLR 41 35     79% 39   29.93 29.93      
Jun 15 03:53 NNW 5 10 Clear CLR 40 35     83% 37   29.93 29.93      
May 14 10:53 S 3 10 Clear CLR 58 42     55%     30.13 30.11      
May 14 06:53 SSE 3 10 Clear CLR 42 37     82% 40   30.14 30.14      
May 12 22:53 Calm 10 Clear CLR 52 38     59%     29.97 29.97      
May 12 18:53 N 9 10 Clear CLR 67 38     34%     29.93 29.93      
May 11 17:53   10 Mostly Clear FEW060 55 44     66%     30.05 30.06     0
Jun 11 20:53   10 Clear   64 35     34%     29.82 29.8      
Jun 11 14:53 W 5 10 Clear CLR 65 28     25%     29.89 29.9      
Jun 10 12:13 5 6 Light Rain FEW035 BKN043 OVC055 52 41     66%     29.75   0    
Jun 10 08:53 S 7 10 Clear CLR 51 41     68%     29.75 29.74      
Jun 09 13:53 7 10 Light Rain FEW026 SCT037 BKN047 57 48     72%     29.8 29.79 0    
Jun 08 21:53   10 Mostly Clear FEW120 64 51     63%     29.75 29.7      
Jun 07 23:53 E 10 10 Clear CLR 70 54     57%     29.84 29.77      
Jun 07 09:53 Calm 10 Clear CLR 66 52     61%     29.99 29.94      
Jun 06 01:53 N 5 10 Clear CLR 47 41     80% 45   30.17 30.15